Regional Weather Roundup
Issued by NWS

Home | Current Version | Previous Version | Graphics & Text | Print | Product List | Glossary On
Versions: 1 2 3 4 5 6 7 8 9 10 11 12 13 14 15 16 17 18 19 20 21 22 23 24 25 26 27 28
000
ASUS45 KTFX 141010
RWRMT
MONTANA REGIONAL WEATHER ROUNDUP
NATIONAL WEATHER SERVICE GREAT FALLS MT
300 AM MST THU DEC 14 2017

NOTE: "FAIR" INDICATES FEW OR NO CLOUDS BELOW 12000 FEET WITH NO
SIGNIFICANT WEATHER AND/OR OBSTRUCTIONS TO VISIBILITY.

MTZ001>007-043-141100-
WEST OF THE DIVIDE

CITY           SKY/WX    TMP DP  RH WIND       PRES   REMARKS
KALISPELL      CLOUDY    25  23  92 MISG      30.54S
MISSOULA       CLOUDY    26  24  92 S5        30.52S
BUTTE          CLOUDY    22  19  89 CALM      30.43R
MULLAN PASS    FAIR      22  20  92 S5        30.37S
ANACONDA         N/A     21  19  93 SW3       30.44S
DEER LODGE       N/A     25  25 100 CALM      30.48S
EUREKA           N/A     23  18  80 MISG      30.58S
HAMILTON         N/A     19  18  93 CALM      30.50R
LIBBY            N/A     27  25  93 CALM      30.55R
PLAINS           N/A     23  18  81 CALM      30.52S
RONAN            N/A     27  24  88 CALM      30.51S
$$

MTZ008-052>055-141100-
SOUTHWEST MONTANA

CITY           SKY/WX    TMP DP  RH WIND       PRES   REMARKS
BOZEMAN        FOG       27  25  92 NW5       30.44R VSB 1/4
DILLON         FAIR      22  18  85 SW3       30.42R
W YELLOWSTONE  FAIR       3   0  85 SW3       30.35S
ENNIS          CLOUDY    25  21  86 NE7       30.45R WCI  17
THREE FORKS      N/A     26  25  96 CALM      30.38R VSB 0
TWIN BRIDGES     N/A     12   4  70 CALM      30.36R
$$

MTZ009-010-012-014-046-048-049-054-141100-
EAST SLOPES AND CENTRAL MONTANA

CITY           SKY/WX    TMP DP  RH WIND       PRES   REMARKS
CUT BANK       FAIR      24  20  84 W13       30.36S WCI  12
GREAT FALLS    FAIR      24  19  81 SW9       30.39S WCI  14
MALMSTROM AFB  FAIR      29  23  78 W12G21    30.39S WCI  19
HELENA         MOCLDY    14  13  95 CALM      30.44F FOG
CHOTEAU          N/A     27  21  80 S9        30.39S WCI  17
CONRAD           N/A     23  21  92 SW5       30.35
$$

MTZ011-013-016-021-045-047-050-051-141100-
NORTH CENTRAL MONTANA

CITY           SKY/WX    TMP DP  RH WIND       PRES   REMARKS
HAVRE          FAIR      27  23  85 SW13      30.34R WCI  16
LEWISTOWN      FAIR      26  21  81 W13       30.32S WCI  15
N BAR RANCH    FAIR      30  19  64 NW32G41   30.24F WCI  15
CHINOOK          N/A     28  25  86 W9        30.32R WCI  20
$$

MTZ017>020-022>027-061-062-141100-
NORTHEAST MONTANA

CITY           SKY/WX    TMP DP  RH WIND       PRES   REMARKS
GLASGOW        CLOUDY    33  25  72 NW17      30.21R WCI  22
GLENDIVE       CLOUDY    32  27  81 NW20G29   30.14R WCI  20
JORDAN           N/A     33  24  69 NW15      30.23R WCI  23
SIDNEY         CLOUDY    34  28  79 NW20      30.10R WCI  23
WOLF POINT     CLOUDY    35  27  72 W13       30.18R WCI  26
MALTA          CLOUDY    32  25  74 NW18      30.28S WCI  20
PLENTYWOOD       N/A     34  28  80 NW13G20   30.08R WCI  25
POPLAR           N/A     34  27  75 NW18      30.15R WCI  23
SCOBEY           N/A     32  25  76 NW16      30.10R WCI  21
$$

MTZ028>42-056>058-141100-
SOUTHCENTRAL AND SOUTHEAST MONTANA

CITY           SKY/WX    TMP DP  RH WIND       PRES   REMARKS
BAKER          CLOUDY    32  29  88 NW17G33   30.10R WCI  21
BILLINGS       FAIR      31  22  69 NW6       30.30R WCI  25
LIVINGSTON     MOCLDY    24  21  88 NW8       30.38R WCI  15
MILES CITY     CLOUDY    35  26  69 NW18G26   30.20R WCI  24
BIG TIMBER     CLEAR     32  25  74 W21G36    30.35R WCI  20
EKALAKA          N/A     30  26  85 NW21      30.06R WCI  17
FORSYTH          N/A     32  23  69 W9        30.24R WCI  24
LAUREL           N/A     34  23  64 W12       30.31R WCI  25
$$

REGIONAL REPORTS...DAKOTAS

CITY           SKY/WX    TMP DP  RH WIND       PRES   REMARKS
WILLISTON      CLOUDY    34  27  75 N22G33    30.06R WCI  22
MINOT          CLOUDY    33  28  81 NW15      29.97R WCI  23
DICKINSON      CLOUDY    32  29  88 NW17      30.00R WCI  21
BEACH          CLOUDY    30  30 100 NW20G26   30.10R WCI  18
CROSBY         CLOUDY    32  28  86 NW20      30.06R WCI  20
TIOGA          CLOUDY    30  30 100 NW20G28   30.03R WCI  18
WATFORD CITY   CLOUDY    32  27  80 NW16G22   30.05R WCI  21
BISMARCK       CLOUDY    28  26  92 W5        29.98S
GRAND FORKS    CLOUDY    18  15  88 S6        29.99S WCI  10
FARGO          CLOUDY    20  15  81 CALM      30.00F
BUFFALO SD       N/A     33  31  92 NW31      29.98R WCI  19
RAPID CITY     CLOUDY    39  24  55 NW22G29   30.05S WCI  29
$$

REGIONAL REPORTS...WYOMING/IDAHO/WASHINGTON

CITY           SKY/WX    TMP DP  RH WIND       PRES   REMARKS
GILLETTE       CLOUDY    35  24  64 NW23G35   30.14R WCI  23
SHERIDAN       CLOUDY    38  23  55 NW25G33   30.22R WCI  27
BUFFALO WY     CLOUDY    38  18  44 NW33G47   30.16F WCI  25
CODY           FAIR      23  22  96 S5        30.29R
YELLOWSTONE LA   N/A      7   4  87 CALM      30.34S
IDAHO FALLS    FOG       22  21  96 S5        30.43R VSB 1/2
SALMON         CLOUDY    21  18  88 CALM      30.50S
BOISE          CLOUDY    25  21  85 S12       30.51R WCI  14
SPOKANE        CLOUDY    29  27  92 N3        30.53S
$$

REGIONAL REPORTS...ALBERTA

CITY           SKY/WX    TMP DP  RH WIND       PRES   REMARKS
EDMONTON       CLEAR     25  19  80 SW5       30.28F
CALGARY        PTCLDY    23  18  80 S5        30.32F
LETHBRIDGE     CLEAR     21  16  79 SW9       30.36F WCI  11
MEDICINE HAT   CLEAR     27  23  86 NW10      30.35R WCI  17
$$

REGIONAL REPORTS...SASKATCHEWAN

CITY           SKY/WX    TMP DP  RH WIND       PRES   REMARKS
SWIFT CURRENT  CLOUDY    30  27  86 NW14      30.20R WCI  20
REGINA         MOCLDY    28  25  86 NW14      30.12R WCI  17
SASKATOON      MOCLDY    25  23  93 W9        30.19R WCI  15
$$




USA.gov is the U.S. government's official web portal to all federal, state and local government web resources and services.